sat.trackr.live / text

‹ back to catalog

STARLINK-5783

NORAD 56022 · 2023-042AN

PAYLOAD ACTIVE UNKNOWN

§ Identity

Operator
Country
US
Launch date
2023-03-24
Launch site
AFETR
Launch vehicle
Mass (kg)
RCS (m²)

Purposes: comms

External: N2YO · Heavens-Above · Gunter

§ Orbital elements

Epoch: 2026-05-24T21:20:39.269760Z

Period
94.27 min
Inclination
43.0030°
Eccentricity
0.0001284
Mean motion
15.27573990 rev/d
Perigee alt
482.2 km
Apogee alt
483.9 km
Semi-major
6,861.2 km
B*
4.1356e-7
RAAN
334.5165°
Arg perigee
268.8303°
Mean anomaly
91.2402°
Rev number
17,469

§ Raw data

STARLINK-57831 56022U 23042AN  26144.88934340 -.00000251  00000+0  41356-6 0  99952 56022  43.0030 334.5165 0001284 268.8303  91.2402 15.27573990174692

JSON: /api/v1/satellites/56022 · /tle

For live sub-satellite position, see the globe view (requires WebGL).

§ Visibility from observer

Set your observer location to see the next 7 days of passes ≥ 10°. The values pass through the URL so the page stays shareable.

No JS? Fill the form by hand. The geolocation button needs JavaScript.